sat.trackr.live / text

‹ back to catalog

STARLINK-32511

NORAD 61727 · 2024-196W

PAYLOAD ACTIVE UNKNOWN

§ Identity

Operator
Country
US
Launch date
2024-10-30
Launch site
AFETR
Launch vehicle
Mass (kg)
RCS (m²)

Purposes: comms

External: N2YO · Heavens-Above · Gunter

§ Orbital elements

Epoch: 2026-05-25T03:40:47.081280Z

Period
94.11 min
Inclination
53.1607°
Eccentricity
0.0001365
Mean motion
15.30190094 rev/d
Perigee alt
474.3 km
Apogee alt
476.2 km
Semi-major
6,853.4 km
B*
2.2700e-5
RAAN
106.1608°
Arg perigee
89.6878°
Mean anomaly
270.4279°
Rev number
8,886

§ Raw data

STARLINK-325111 61727U 24196W   26145.15332270  .00000313  00000+0  22700-4 0  99972 61727  53.1607 106.1608 0001365  89.6878 270.4279 15.30190094 88863

JSON: /api/v1/satellites/61727 · /tle

For live sub-satellite position, see the globe view (requires WebGL).

§ Visibility from observer

Set your observer location to see the next 7 days of passes ≥ 10°. The values pass through the URL so the page stays shareable.

No JS? Fill the form by hand. The geolocation button needs JavaScript.